Weather in Tallahassee

United States     30°26′16″N   84°16′50″W
temp.,
°C
wind,
m/s
gust,
m/s
humid.,
%
clouds,
%
prec.,
mm/h
press.,
hPa
HPBL,
m
7 may, fri
fri723:00+18nw39600 0.0 1017204
02:00+17nw312560 0.0 1017400
05:00+14nw28650 0.0 1017164
08:00+15nw39660 0.0 1018282
11:00+22nw49410 0.0 10191315
14:00+25nw68280 0.0 10181972
17:00+25nw68260 0.0 10171972
20:00+19nnw37470 0.0 1018155
8 may, sat
sat823:00+14nnw24525 0.0 102091
02:00+13n23543 0.0 102052
05:00+12nne23585 0.0 102058
08:00+13nne13594 0.0 102298
11:00+22ene22327 0.0 1022948
14:00+28nne112214 0.0 10201445
17:00+28nne1125100 0.0 10181684
20:00+21ese11513 0.0 101918
9 may, sun
sun923:00+18wsw1156100 0.0 102021
02:00+16ese00631 0.0 101911
05:00+15se23642 0.0 101970
08:00+17se210734 0.0 1019251
11:00+27s69529 0.0 10191412
14:00+29s795069 0.0 10181932
17:00+28s685255 0.0 10171724
20:00+24s4874100 0.0 1017573
10 may, mon
mon1023:00+20s2898100 0.0 1017217
02:00+20s299998 0.0 1016302
05:00+20sse2710053 0.1 1016205
08:00+22ssw2796100 0.1 1017271
11:00+25ssw4682100 0.8 1017752
14:00+30sw5852100 1.8 10162043
17:00+24wnw3787100 2.4 1016455
20:00+21nne1398100 5.9 1017104
11 may, tue
tue1123:00+21sse2598100 4.3 1017148
02:00+21wsw2597100 4.3 1016127
05:00+20wsw25986 0.0 1017125
08:00+22wnw139596 0.0 1018143
11:00+26nnw237658 0.6 1019839
14:00+28nnw2370100 2.9 10181140
17:00+26nnw1375100 2.4 1018497
20:00+23n2289100 4.6 101818